User: anonymous   Login
Location: *
(2.5500°S, 65.9667°W)
Time: 07:39:44
(UTC+00:00)
Language:

H-2A R/B - Orbit

View from above orbital plane
View from above orbital plane
View from above satellite
View from above satellite

Ground track
Ground track

The orbit data is extracted from the following two-line orbital elements,

1 27601U 02056E   22276.80207351  .00000401  00000-0  15988-3 0  9993
2 27601  98.1812 277.3034 0070886 298.6386 233.8960 14.32119634 34668
Epoch (UTC): 03 October 2022 19:14:59
Eccentricity: 0.0070886
inclination: 98.1812°
perigee height: 734 km
apogee height: 835 km
right ascension of ascending node: 277.3034°
argument of perigee: 298.6386°
revolutions per day: 14.32119634
mean anomaly at epoch: 233.8960°
orbit number at epoch: 3466

The dashed part of the orbit path shows where the satellite is in the earth's shadow,  

DLR